Stations météo

réclame
Mon MeteoGroup
Ancona, Italie (16190): Température de l'air & dewpoint: 12.12.2017 21:00:00 - 18.12.2017 21:00:00 (CET)Ancona, Italie (16190): reduced air pressure: 12.12.2017 21:00:00 - 18.12.2017 21:00:00 (CET)Ancona, Italie (16190): Quantités de précipitations: 12.12.2017 21:00:00 - 18.12.2017 21:00:00 (CET)
Date & Time tt [°C] td [°C] ppp [hPa] rr [mm]
18.12.2017 21:00:00 - - - -
18.12.2017 20:00:00 4,2 -1,9 1020,2 -
18.12.2017 19:00:00 4,6 -1,9 1019,5 0,0
18.12.2017 18:00:00 4,7 -1,2 1019,0 -
18.12.2017 17:00:00 4,3 -1,8 1018,4 -
18.12.2017 16:00:00 5,4 -1,8 1018,4 -
18.12.2017 15:00:00 6,4 2,0 1017,9 -
18.12.2017 14:00:00 6,0 1,5 1018,3 -
18.12.2017 13:00:00 7,0 2,6 1018,5 0,0
18.12.2017 12:00:00 4,3 2,3 1019,1 -
18.12.2017 11:00:00 3,1 0,8 1020,0 -
18.12.2017 10:00:00 2,2 0,2 1019,3 -
18.12.2017 09:00:00 2,2 0,2 1019,1 -
18.12.2017 08:00:00 2,3 -0,3 1018,9 -
18.12.2017 07:00:00 3,4 -0,5 1018,7 0,0
18.12.2017 06:00:00 3,5 -1,9 1018,5 -
18.12.2017 05:00:00 3,2 -0,5 1018,4 -
18.12.2017 04:00:00 3,8 -0,1 1018,3 -
18.12.2017 03:00:00 3,9 -0,8 1018,4 -
18.12.2017 02:00:00 3,8 -0,8 1018,2 -
18.12.2017 01:00:00 6,0 -1,7 1017,7 0,0
18.12.2017 00:00:00 6,1 -1,9 1017,7 -
17.12.2017 23:00:00 6,3 -2,4 1017,5 -
17.12.2017 22:00:00 6,7 -1,8 1017,0 -
17.12.2017 21:00:00 6,6 -1,4 1016,6 -
17.12.2017 20:00:00 6,4 -0,7 1016,1 -
17.12.2017 19:00:00 6,6 -1,4 1015,3 0,0
17.12.2017 18:00:00 6,7 -0,4 1014,7 -
17.12.2017 17:00:00 6,4 -1,4 1014,0 -
17.12.2017 16:00:00 6,5 -0,6 1013,3 -
17.12.2017 15:00:00 7,2 0,8 1012,5 -
17.12.2017 14:00:00 7,2 2,6 1011,7 -
17.12.2017 13:00:00 7,4 2,8 1011,9 0,0
17.12.2017 12:00:00 6,4 3,0 1012,0 -
17.12.2017 11:00:00 6,9 4,0 1012,2 -
17.12.2017 10:00:00 7,1 1,7 1011,3 -
17.12.2017 09:00:00 6,0 3,3 1010,5 -
17.12.2017 08:00:00 5,4 3,0 1009,7 -
17.12.2017 07:00:00 5,3 2,4 1009,4 0,0
17.12.2017 06:00:00 6,8 1,4 1007,9 -
17.12.2017 05:00:00 5,2 4,8 1006,7 -
17.12.2017 04:00:00 4,2 4,1 1006,9 -
17.12.2017 03:00:00 4,7 4,6 1006,5 -
17.12.2017 02:00:00 5,3 5,3 1005,2 -
17.12.2017 01:00:00 5,3 5,3 1005,1 0,0
17.12.2017 00:00:00 4,5 4,4 1005,7 -
16.12.2017 23:00:00 4,9 4,9 1005,2 -
16.12.2017 22:00:00 4,1 4,0 1004,9 -
16.12.2017 21:00:00 3,7 3,4 1004,4 -
16.12.2017 20:00:00 3,6 3,3 1004,0 -
16.12.2017 19:00:00 4,1 4,0 1003,6 0,0
16.12.2017 18:00:00 3,9 3,6 1003,8 -
16.12.2017 17:00:00 4,4 3,8 1003,2 -
16.12.2017 16:00:00 4,8 4,2 1002,1 -
16.12.2017 15:00:00 2,8 0,8 1002,5 -
16.12.2017 14:00:00 7,5 5,4 1001,7 -
16.12.2017 13:00:00 7,6 5,0 1001,6 0,0
16.12.2017 12:00:00 7,8 5,7 1001,6 -
16.12.2017 11:00:00 6,7 5,0 1001,8 -
16.12.2017 10:00:00 7,0 5,5 1001,2 -
16.12.2017 09:00:00 7,5 6,3 1000,0 -
16.12.2017 08:00:00 6,6 5,1 999,2 -
16.12.2017 07:00:00 6,8 5,1 998,4 0,0
16.12.2017 06:00:00 6,3 4,4 997,5 -
16.12.2017 05:00:00 6,2 4,7 996,8 -
16.12.2017 04:00:00 6,1 5,0 995,8 -
16.12.2017 03:00:00 6,6 5,8 995,3 -
16.12.2017 02:00:00 6,9 6,6 995,1 -
16.12.2017 01:00:00 7,5 7,0 994,3 0,0
16.12.2017 00:00:00 8,0 7,2 994,5 -
15.12.2017 23:00:00 9,1 7,2 992,9 -
15.12.2017 22:00:00 8,6 8,0 992,4 -
15.12.2017 21:00:00 9,0 8,7 992,3 -
15.12.2017 20:00:00 9,0 8,7 992,0 -
15.12.2017 19:00:00 10,0 9,7 993,2 0,0
15.12.2017 18:00:00 10,4 9,8 993,6 -
15.12.2017 17:00:00 11,8 9,5 992,6 -
15.12.2017 16:00:00 11,4 9,3 992,8 -
15.12.2017 15:00:00 12,2 9,0 993,3 -
15.12.2017 14:00:00 15,4 7,1 993,6 -
15.12.2017 13:00:00 15,3 7,3 994,4 0,0
15.12.2017 12:00:00 15,8 7,0 996,2 -
15.12.2017 11:00:00 15,8 7,2 997,4 -
15.12.2017 10:00:00 15,6 7,3 997,7 -
15.12.2017 09:00:00 14,7 6,4 997,3 -
15.12.2017 08:00:00 14,5 6,0 996,9 -
15.12.2017 07:00:00 14,4 6,2 996,6 0,0
15.12.2017 06:00:00 14,1 8,0 996,5 -
15.12.2017 05:00:00 13,8 7,9 997,2 -
15.12.2017 04:00:00 13,6 7,7 997,8 -
15.12.2017 03:00:00 13,9 7,8 998,7 -
15.12.2017 02:00:00 13,3 7,5 999,0 -
15.12.2017 01:00:00 14,2 6,2 999,8 0,0
15.12.2017 00:00:00 13,6 5,2 999,9 -
14.12.2017 23:00:00 14,1 5,6 1000,0 -
14.12.2017 22:00:00 14,1 5,6 1000,4 -
14.12.2017 21:00:00 13,9 5,7 1000,6 -
14.12.2017 20:00:00 13,4 7,6 1001,8 -
14.12.2017 19:00:00 13,3 6,6 1002,2 0,0
14.12.2017 18:00:00 13,2 7,1 1003,1 -
14.12.2017 17:00:00 13,8 7,9 1002,8 -
14.12.2017 16:00:00 13,8 7,7 1003,0 -
14.12.2017 15:00:00 15,1 6,8 1002,8 -
14.12.2017 14:00:00 14,9 6,9 1003,5 -
14.12.2017 13:00:00 14,7 6,4 1004,0 0,0
14.12.2017 12:00:00 14,2 7,2 1004,4 -
14.12.2017 11:00:00 12,6 5,9 1005,4 -
14.12.2017 10:00:00 12,3 5,8 1005,6 -
14.12.2017 09:00:00 11,1 4,9 1005,8 -
14.12.2017 08:00:00 10,5 2,7 1006,1 -
14.12.2017 07:00:00 9,8 2,6 1006,9 0,0
14.12.2017 06:00:00 9,3 1,8 1006,8 -
14.12.2017 05:00:00 8,1 1,4 1007,5 -
14.12.2017 04:00:00 6,8 0,6 1008,1 -
14.12.2017 03:00:00 6,1 0,4 1009,0 -
14.12.2017 02:00:00 5,8 1,7 1009,3 -
14.12.2017 01:00:00 6,3 1,9 1009,7 0,0
14.12.2017 00:00:00 6,7 2,3 1010,6 -
13.12.2017 23:00:00 6,7 2,3 1011,0 -
13.12.2017 22:00:00 6,9 1,5 1011,4 -
13.12.2017 21:00:00 6,8 1,4 1011,8 -
13.12.2017 20:00:00 7,6 2,2 1011,8 -
13.12.2017 19:00:00 8,5 2,9 1011,8 0,0
13.12.2017 18:00:00 8,3 5,9 1011,6 -
13.12.2017 17:00:00 9,5 7,4 1011,7 -
13.12.2017 16:00:00 11,4 7,8 1011,2 -
13.12.2017 15:00:00 12,1 8,5 1011,2 -
13.12.2017 14:00:00 10,9 9,3 1011,2 -
13.12.2017 13:00:00 9,0 8,2 1012,1 0,0
13.12.2017 12:00:00 8,7 8,4 1012,6 -
13.12.2017 11:00:00 8,2 8,2 1013,2 -
13.12.2017 10:00:00 8,0 8,0 1013,3 -
13.12.2017 09:00:00 7,4 7,4 1013,2 -
13.12.2017 08:00:00 7,2 7,2 1012,7 -
13.12.2017 07:00:00 7,2 7,2 1012,0 0,0
13.12.2017 06:00:00 7,5 7,5 1011,8 -
13.12.2017 05:00:00 7,5 7,4 1011,6 -
13.12.2017 04:00:00 7,7 7,4 1012,1 -
13.12.2017 03:00:00 7,8 7,7 1012,2 -
13.12.2017 02:00:00 8,0 7,9 1012,0 -
13.12.2017 01:00:00 8,3 8,0 1011,9 0,0
13.12.2017 00:00:00 8,5 8,2 1011,8 -
12.12.2017 23:00:00 8,9 8,1 1011,5 -
12.12.2017 22:00:00 9,0 7,8 1011,0 -
12.12.2017 21:00:00 9,8 9,2 1010,6 -

tt = Température de l'air
td = dewpoint
ppp = reduced air pressure
rr = Quantités de précipitations

stations d'obs. à proximité